Find Starlink 33894

NORAD ID: 63697 Int'l Des: 2025-087 Owner: SPXS Country: US Constellation: starlink operational
LEOCIRCULAR

Live Position

Loading 3D Globe...

About Starlink 33894

Description loading...

Upcoming Passes

Passes for default location (London). Set your location on the main map for personalized predictions.

Altitude History

Loading altitude history...

Two-Line Element Set

1 63697U 25087A 26124.45098957 .00032561 00000-0 97030-3 0 9994
2 63697 53.1596 320.0772 0000802 115.1527 244.9559 15.34411119 57746
Epoch: May 4, 2026 • Age: 5 hours

Current Status

Altitude 465.4 km
Velocity 7.64 km/s
Sub-Earth Point 38.58°N, 1.06°W
Launch Date Apr 28, 2025
Age 1 years
Type internet

Technical Details

Classification Payload
Mass 575.00 kg
Dry Mass 530.00 kg
Total Mass 575.00 kg
Length 0.30 m
Diameter 4.10 m
Span 29.00 m
Shape Box + pan
Manufacturer SPXS
Bus Type Starlink V2MO
Phase Status In Orbit
Owner/State SPXS/US

Most Searched